• In Uzbekistan
  • List of Countries
  • For 7 days
  • Water Temperature
  • Satellite Maps
  • Weather Map
  • Weather Widgets
  • user-avatar
    Login

    Hourly Weather Procisne

    Today, 17 July, Tuesday

    Time Temperature Precipitation Wind Pressure Humidity
    00:00 +14°C° 0 mm 1 mps 708 mmHg 96%
    01:00 +14°C° 0 mm 1 mps 708 mmHg 96%
    02:00 +14°C° 0 mm 1 mps 708 mmHg 96%
    03:00 +13°C° 0 mm 1 mps 708 mmHg 96%
    04:00 +13°C° 0 mm 1 mps 708 mmHg 97%
    05:00 +13°C° 0 mm 1 mps 708 mmHg 97%
    06:00 +14°C° 0 mm 1 mps 708 mmHg 95%
    07:00 +15°C° 0 mm 2 mps 708 mmHg 94%
    08:00 +17°C° 0 mm 2 mps 708 mmHg 92%
    09:00 +18°C° 0.2 mm 2 mps 708 mmHg 89%
    10:00 +19°C° 0.2 mm 2 mps 708 mmHg 85%
    11:00 +20°C° 0.2 mm 2 mps 708 mmHg 82%
    12:00 +20°C° 0.5 mm 3 mps 708 mmHg 82%
    13:00 +21°C° 0.5 mm 3 mps 707 mmHg 81%
    14:00 +21°C° 0.5 mm 3 mps 707 mmHg 80%
    15:00 +21°C° 0.4 mm 3 mps 707 mmHg 80%
    16:00 +21°C° 0.4 mm 3 mps 707 mmHg 79%
    17:00 +21°C° 0.4 mm 3 mps 707 mmHg 79%
    18:00 +20°C° 0.2 mm 3 mps 707 mmHg 83%
    19:00 +19°C° 0.2 mm 3 mps 707 mmHg 88%
    20:00 +18°C° 0.2 mm 2 mps 706 mmHg 92%
    21:00 +17°C° 0.1 mm 2 mps 706 mmHg 94%
    22:00 +17°C° 0.1 mm 2 mps 707 mmHg 95%
    23:00 +17°C° 0.1 mm 2 mps 707 mmHg 96%

    Tomorrow, 18 July, Wednesday

    Time Temperature Precipitation Wind Pressure Humidity
    00:00 +17°C° 0.1 mm 2 mps 707 mmHg 97%
    01:00 +17°C° 0.1 mm 2 mps 707 mmHg 97%
    02:00 +16°C° 0.1 mm 2 mps 707 mmHg 97%
    03:00 +16°C° 1.6 mm 2 mps 706 mmHg 97%
    04:00 +16°C° 1.6 mm 2 mps 706 mmHg 98%
    05:00 +16°C° 1.6 mm 2 mps 706 mmHg 98%
    06:00 +16°C° 4.3 mm 2 mps 706 mmHg 98%
    07:00 +17°C° 4.3 mm 3 mps 706 mmHg 98%
    08:00 +17°C° 4.3 mm 3 mps 706 mmHg 98%
    09:00 +17°C° 1.4 mm 3 mps 706 mmHg 98%
    10:00 +17°C° 1.4 mm 3 mps 707 mmHg 98%
    11:00 +17°C° 1.4 mm 3 mps 707 mmHg 97%
    12:00 +18°C° 0.5 mm 3 mps 707 mmHg 97%
    13:00 +18°C° 0.5 mm 3 mps 707 mmHg 96%
    14:00 +19°C° 0.5 mm 3 mps 707 mmHg 95%
    15:00 +19°C° 0.5 mm 3 mps 707 mmHg 95%
    16:00 +20°C° 0.5 mm 3 mps 707 mmHg 94%
    17:00 +20°C° 0.5 mm 3 mps 708 mmHg 94%
    18:00 +20°C° 0.6 mm 3 mps 708 mmHg 95%
    19:00 +19°C° 0.6 mm 3 mps 708 mmHg 95%
    20:00 +19°C° 0.6 mm 3 mps 708 mmHg 96%
    21:00 +19°C° 0.3 mm 3 mps 708 mmHg 96%
    22:00 +18°C° 0.3 mm 3 mps 708 mmHg 97%
    23:00 +18°C° 0.3 mm 3 mps 708 mmHg 97%

    Day after tomorrow, 19 July, Thursday

    Time Temperature Precipitation Wind Pressure Humidity
    00:00 +18°C° 0.1 mm 3 mps 708 mmHg 97%
    01:00 +18°C° 0.1 mm 3 mps 708 mmHg 97%
    02:00 +18°C° 0.1 mm 2 mps 709 mmHg 97%
    03:00 +18°C° 0.1 mm 2 mps 709 mmHg 97%
    04:00 +18°C° 0.1 mm 2 mps 709 mmHg 97%
    05:00 +18°C° 0.1 mm 2 mps 709 mmHg 97%
    06:00 +18°C° 0.1 mm 3 mps 709 mmHg 97%
    07:00 +18°C° 0.1 mm 3 mps 709 mmHg 96%
    08:00 +19°C° 0.1 mm 3 mps 710 mmHg 96%
    09:00 +19°C° 0.1 mm 3 mps 710 mmHg 93%
    10:00 +20°C° 0.1 mm 3 mps 710 mmHg 91%
    11:00 +20°C° 0.1 mm 3 mps 710 mmHg 88%
    12:00 +21°C° 0.2 mm 3 mps 710 mmHg 86%
    13:00 +21°C° 0.2 mm 3 mps 710 mmHg 84%
    14:00 +22°C° 0.2 mm 4 mps 710 mmHg 81%
    15:00 +22°C° 0.2 mm 4 mps 711 mmHg 81%
    16:00 +22°C° 0.2 mm 4 mps 711 mmHg 80%
    17:00 +22°C° 0.2 mm 4 mps 711 mmHg 80%
    18:00 +21°C° 0.1 mm 4 mps 711 mmHg 84%
    19:00 +20°C° 0.1 mm 3 mps 711 mmHg 87%
    20:00 +19°C° 0.1 mm 3 mps 711 mmHg 91%
    21:00 +18°C° 0 mm 3 mps 711 mmHg 93%
    22:00 +18°C° 0 mm 3 mps 711 mmHg 94%
    23:00 +17°C° 0 mm 2 mps 711 mmHg 96%

    20 July, Friday

    Time Temperature Precipitation Wind Pressure Humidity
    00:00 +17°C° 0 mm 2 mps 711 mmHg 96%
    01:00 +17°C° 0 mm 2 mps 711 mmHg 96%
    02:00 +17°C° 0 mm 2 mps 711 mmHg 97%
    03:00 +17°C° 0.1 mm 2 mps 711 mmHg 97%
    04:00 +17°C° 0.1 mm 2 mps 711 mmHg 97%
    05:00 +17°C° 0.1 mm 2 mps 711 mmHg 97%
    06:00 +17°C° 0.7 mm 2 mps 711 mmHg 97%
    07:00 +17°C° 0.7 mm 2 mps 712 mmHg 96%
    08:00 +17°C° 0.7 mm 2 mps 712 mmHg 96%
    09:00 +17°C° 1.3 mm 2 mps 712 mmHg 96%
    10:00 +18°C° 1.3 mm 2 mps 712 mmHg 96%
    11:00 +18°C° 1.3 mm 2 mps 712 mmHg 96%
    12:00 +19°C° 0.2 mm 2 mps 712 mmHg 90%
    13:00 +20°C° 0.2 mm 2 mps 712 mmHg 84%
    14:00 +21°C° 0.2 mm 2 mps 712 mmHg 79%
    15:00 +21°C° 0.1 mm 2 mps 712 mmHg 76%
    16:00 +23°C° 0.1 mm 2 mps 712 mmHg 72%
    17:00 +24°C° 0.1 mm 3 mps 712 mmHg 69%
    18:00 +21°C° 0.1 mm 2 mps 712 mmHg 76%
    19:00 +20°C° 0.1 mm 2 mps 712 mmHg 83%
    20:00 +20°C° 0.1 mm 1 mps 712 mmHg 90%
    21:00 +19°C° 0 mm 1 mps 712 mmHg 91%
    22:00 +18°C° 0 mm 1 mps 712 mmHg 93%
    23:00 +16°C° 0 mm 1 mps 712 mmHg 95%

    21 July, Saturday

    Time Temperature Precipitation Wind Pressure Humidity
    00:00 +16°C° 0 mm 1 mps 712 mmHg 95%
    01:00 +15°C° 0 mm 1 mps 712 mmHg 95%
    02:00 +15°C° 0 mm 1 mps 712 mmHg 95%
    03:00 +15°C° 0 mm 1 mps 712 mmHg 95%
    04:00 +14°C° 0 mm 1 mps 712 mmHg 95%
    05:00 +14°C° 0 mm 1 mps 712 mmHg 95%
    06:00 +16°C° 0 mm 1 mps 712 mmHg 90%
    07:00 +19°C° 0 mm 1 mps 712 mmHg 84%
    08:00 +21°C° 0 mm 1 mps 712 mmHg 79%
    09:00 +22°C° 0 mm 1 mps 713 mmHg 71%
    10:00 +24°C° 0 mm 1 mps 713 mmHg 64%
    11:00 +26°C° 0 mm 1 mps 713 mmHg 56%
    12:00 +26°C° 0 mm 1 mps 712 mmHg 55%
    13:00 +26°C° 0 mm 1 mps 712 mmHg 55%
    14:00 +26°C° 0 mm 1 mps 712 mmHg 54%
    15:00 +26°C° 0 mm 1 mps 712 mmHg 56%
    16:00 +26°C° 0 mm 1 mps 712 mmHg 57%
    17:00 +26°C° 0 mm 1 mps 711 mmHg 59%
    18:00 +24°C° 0.2 mm 1 mps 711 mmHg 68%
    19:00 +22°C° 0.2 mm 1 mps 711 mmHg 76%
    20:00 +18°C° 0.2 mm 0 mps 710 mmHg 85%
    21:00 +20°C° 0.1 mm 1 mps 710 mmHg 87%
    22:00 +19°C° 0.1 mm 1 mps 710 mmHg 89%
    23:00 +18°C° 0.1 mm 1 mps 710 mmHg 91%

    22 July, Sunday

    Time Temperature Precipitation Wind Pressure Humidity
    00:00 +18°C° 0.1 mm 1 mps 709 mmHg 92%
    01:00 +16°C° 0.1 mm 1 mps 709 mmHg 93%
    02:00 +16°C° 0.1 mm 1 mps 709 mmHg 93%
    03:00 +16°C° 0.4 mm 1 mps 709 mmHg 94%
    04:00 +16°C° 0.4 mm 1 mps 709 mmHg 94%
    05:00 +16°C° 0.4 mm 1 mps 708 mmHg 94%
    06:00 +18°C° 0.1 mm 1 mps 708 mmHg 91%
    07:00 +20°C° 0.1 mm 1 mps 708 mmHg 89%
    08:00 +21°C° 0.1 mm 1 mps 708 mmHg 86%
    09:00 +22°C° 0.9 mm 1 mps 708 mmHg 84%
    10:00 +23°C° 0.9 mm 1 mps 708 mmHg 83%
    11:00 +24°C° 0.9 mm 1 mps 708 mmHg 81%
    12:00 +24°C° 0.8 mm 1 mps 708 mmHg 77%
    13:00 +25°C° 0.8 mm 1 mps 708 mmHg 74%
    14:00 +26°C° 0.8 mm 1 mps 708 mmHg 71%
    15:00 +26°C° 0.3 mm 1 mps 708 mmHg 70%
    16:00 +26°C° 0.3 mm 2 mps 708 mmHg 70%
    17:00 +26°C° 0.3 mm 2 mps 708 mmHg 69%
    18:00 +24°C° 0.9 mm 2 mps 708 mmHg 77%
    19:00 +22°C° 0.9 mm 1 mps 708 mmHg 85%
    20:00 +21°C° 0.9 mm 1 mps 708 mmHg 92%
    21:00 +20°C° 0.7 mm 1 mps 708 mmHg 93%
    22:00 +20°C° 0.7 mm 1 mps 708 mmHg 94%
    23:00 +19°C° 0.7 mm 1 mps 708 mmHg 95%
    Show more